Volver al catálogo

STARLINK-3799

ActivoComunicacionesVLEO
NORAD 52382·PAYLOAD·🇺🇸 United States

Lanzado Apr 29, 2022 desde Cape Canaveral Space Force Station

Loading…

Próximos Pases (próximas 24 horas)

TLE

ActualizadoSource: CelesTrak SupGP

Época: Sep 14, 2026, 22:07 UTC

1 52382C 22045BD  26257.92201389  .00156530  00000+0  24105-2 0  2579
2 52382  53.2121  31.4146 0001829  55.0642  44.7063 15.53504894    16

Sigue STARLINK-3799 en tiempo real con AllMySat

Download on the App Store